Preview of NWS' New Version of Forecast
This preview is not operational and should not be used for support decisions.

Regional Weather Roundup (RWR)

Issued by National Weather Service (NWS)

                            
000
ASUS43 KTOP 190659
RWRKS 

WEATHER ROUNDUP FOR KANSAS
NATIONAL WEATHER SERVICE GOODLAND KS
100 AM CST TUE FEB 19 2019

NOTE:  "FAIR" INDICATES FEW OR NO CLOUDS BELOW 12,000 FEET WITH NO
SIGNIFICANT WEATHER AND/OR OBSTRUCTIONS TO VISIBILITY.

KSZ001>006-013>018-027>032-041>047-190800-
NORTHWEST KANSAS
  
CITY           SKY/WX    TMP DP  RH WIND       PRES   REMARKS
GOODLAND       FLURRIES  14  11  87 SE16      30.22F WCI  -2          
HAYS           CLOUDY    12  10  92 NE8       30.41F                  
HILL CITY      CLOUDY     8   6  92 NE5       30.40F                  
RUSSELL        CLOUDY    13  12  96 NE6       30.41F                  
$$

KSZ061>065-074>080-084>089-190800-
SOUTHWEST KANSAS
  
CITY           SKY/WX    TMP DP  RH WIND       PRES   REMARKS
DODGE CITY     CLOUDY    17  12  80 NE9       30.32F                  
GARDEN CITY    CLOUDY    12  10  92 E10       30.28F WCI  -1          
GREAT BEND     CLOUDY    18  14  84 NE8       30.40F                  
LIBERAL        CLOUDY    17  12  80 E8        30.28F                  
$$

KSZ066>073-081>083-090>101-190800-
SOUTHEAST KANSAS
  
CITY           SKY/WX    TMP DP  RH WIND       PRES   REMARKS
CHANUTE        CLOUDY    26  17  68 E13G18    30.46F WCI  15          
COFFEYVILLE    CLOUDY    27  20  75 NE13      30.46F WCI  16          
HUTCHINSON     CLOUDY    22  18  85 NE8       30.41F                  
MEDICINE LODGE   N/A     23  16  74 NE8       30.39S                  
NEWTON         CLOUDY    21  17  84 E9        30.43F                  
PARSONS        CLOUDY    26  19  74 VRB7G17   30.48F                  
WICHITA INTL   CLOUDY    25  17  72 E12       30.41F WCI  14          
WICHITA JABRA  CLOUDY    23  16  74 E9        30.42F                  
WICHITA MCCONL CLOUDY    24  15  67 E10       30.41F WCI  14          
WINFIELD       CLOUDY    25  17  72 E10       30.41F WCI  15          
$$

KSZ007>012-019>026-033>040-048>060-102>105-190800-
NORTHEAST KANSAS
  
CITY           SKY/WX    TMP DP  RH WIND       PRES   REMARKS
CONCORDIA      CLOUDY    10   7  87 CALM      30.48S                  
EMPORIA        CLOUDY    20  17  88 NE9       30.47F                  
LAWRENCE       CLOUDY    20  14  77 E5        30.54R                  
MANHATTAN      CLOUDY    17  13  84 NE5       30.52S                  
OLATHE IND     CLOUDY    20  15  81 E6        30.52R                  
OLATHE EXE     CLOUDY    20  15  81 E5        30.51S                  
SALINA         CLOUDY    19  15  84 NE8       30.47F                  
TOPEKA BILLARD CLOUDY    19  13  77 CALM      30.54R                  
TOPEKA FORBES  CLOUDY    17  12  80 CALM      30.51R                  
$$